Find Starlink 2608

NORAD ID: 48365 Int'l Des: 2021-038 Owner: SPXS Country: US Constellation: starlink operational
LEOCIRCULAR

現在のビュー

3D地球を読み込み中...

About Starlink 2608

Starlink 2608 (NORAD 48365) is a starlink constellation satellite (v1.0) launched May 4, 2021 by SPXS of US. It operates in LEO, CIRCULAR orbit with a mass of 260.00 kg.

次回通過

Passes for default location (London). Set your location on the main map for personalized predictions.

高度履歴

Loading altitude history...

軌道要素

1 48365U 21038N 26264.08736912 .00001097 00000-0 47102-4 0 9991
2 48365 53.1577 158.5065 0001280 90.1118 270.0030 15.31698225297177
Epoch: Sep 21, 2026 • Age: 9 hours

現在のステータス

高度 480.8 km
遠地点 / 近地点 N/A
速度 7.62 km/s
衛星直下点 -30.87°S, 160.31°W
打ち上げ日 May 4, 2021
運用期間 5.3 years
タイプ internet

技術仕様

分類 Payload
質量 260.00 kg
乾燥質量 248.00 kg
長さ 0.20 m
スパン 9.00 m
形状 ? Box + pan
製造者 SPXS
バスタイプ Starlink
フェーズステータス In Orbit
所有者/国 SPXS/US

Most Searched